Regional Weather Roundup
Issued by NWS

Home | Current Version | Previous Version | Text Only | Print | Product List | Glossary On
Versions: 1 2 3 4 5 6 7 8 9 10 11 12 13 14 15 16 17 18 19 20 21 22 23 24 25 26 27 28
000
ASCA42 TJSJ 281710
RWRPR
PUERTO RICO/U.S. VIRGIN ISLANDS HOURLY WEATHER ROUNDUP
NATIONAL WEATHER SERVICE SAN JUAN PR
100 PM AST WED SEP 28 2016

PRZ001>002-007>008-010-281800-
PUERTO RICO

CITY           SKY/WX    TMP DP  RH WIND       PRES   REMARKS
SAN JUAN LMM   MOSUNNY   88  77  70 NE17      30.01F HX 100
AGUADILLA      MOSUNNY   88  77  70 E20G29    30.02F HX 100
CEIBA          CLOUDY    90  79  70 NE13G22   30.02F HX 105
$$

VIZ001>002-281800-
U.S. VIRGIN ISLANDS

CITY           SKY/WX    TMP DP  RH WIND       PRES   REMARKS
CHARLOTTE AMA  MOSUNNY   93  75  55 E18G29    29.99F HX 104
CHRISTIANSTED  PTSUNNY   90  77  66 NE22G28   29.98F HX 102
$$

HOURLY WEATHER ROUNDUP FOR THE NEWS MEDIA

CITY           SKY/WX    TMP DP  RH WIND       PRES   REMARKS
ORLANDO        MOSUNNY   88  70  55 S5        30.00F HX  93
NEW YORK       CLOUDY    69  58  67 E12       30.13R
NEWARK         CLOUDY    70  59  68 E10       30.12R
CHICAGO        LGT RAIN  56  49  77 NE9       29.91R
HARTFORD       CLOUDY    63  55  75 NE12G20   30.17R
BOSTON         CLOUDY    57  52  83 NE18G28   30.25S
DALLAS         PTSUNNY   80  51  36 VRB3      30.07F
PHILADELPHIA   CLOUDY    69  64  84 NE8       30.06F
LOS ANGELES    MOSUNNY   84  51  31 VRB3      29.93S
WASHINGTON DC  LGT RAIN  64  61  90 E10       30.01F FOG



USA.gov is the U.S. government's official web portal to all federal, state and local government web resources and services.